AirNav   Air Wisconsin pilot careers
 
 476 users online  

2U8 Thomas Creek Airport
Stanley, Idaho, USA

GOING TO STANLEY?


FAA INFORMATION EFFECTIVE 06 DECEMBER 2018

Location

FAA Identifier: 2U8
Lat/Long: 44-43-23.9000N / 115-00-14.3000W
44-43.398333N / 115-00.238333W
44.7233056 / -115.0039722
(estimated)
Elevation: 4415 ft. / 1346 m (estimated)
Variation: 17E (1985)
From city: 31 miles N of STANLEY, ID
Time zone: UTC -7 (UTC -6 during Daylight Saving Time)
Zip code: 83278

Airport Operations

Airport use: Open to the public
Activation date: 07/1958
Control tower: no
ARTCC: SALT LAKE CITY CENTER
FSS: BOISE FLIGHT SERVICE STATION
NOTAMs facility: BOI (NOTAM-D service available)
Attendance: UNATNDD
Wind indicator: yes
Segmented circle: no

Airport Communications

CTAF: 122.9

Airport Services

Parking: tiedowns
Airframe service: NONE
Powerplant service: NONE
Bottled oxygen: NONE
Bulk oxygen: NONE

Runway Information

Runway 3/21

Dimensions: 2100 x 75 ft. / 640 x 23 m
USBL WIDTH MAY VARY FM 75 FT TO 100 FT.
Surface: turf/dirt, in good condition
RUNWAY 3  RUNWAY 21
Latitude: 44-43.269982N44-43.527532N
Longitude: 115-00.399260W115-00.075837W
Elevation: 4415.0 ft.4363.0 ft.
Gradient: 0.3%2.5% UP
Traffic pattern: leftleft
Runway heading: 025 magnetic, 042 true205 magnetic, 222 true
Obstructions: 100 ft. hill, 100 ft. from runway, 125 ft. left of centerline, 1:1 slope to clear
+100' RIDGE 250' ON CNTRLN.
10 ft. tree, 150 ft. from runway, 40 ft. left of centerline, 15:1 slope to clear
NUMEROUS TALL TREES ALONG RIVER ON APCH TO RY 21.

Airport Ownership and Management from official FAA records

Ownership: Publicly-owned
Owner: STATE OF ID, ITD, DIV AERO
PO BOX 7129
BOISE, ID 83707-1129
Phone 208-334-8775
Manager: DIV ADMIN
PO BOX 7129
BOISE, ID 83707-1129
Phone 208-334-8775

Airport Operational Statistics

Aircraft operations: avg 45/week *
68% air taxi
32% transient general aviation
* for 12-month period ending 11 May 2015

Additional Remarks

RCMD LNDG RY 21-TKOF RY 03; GO-AROUND EXTREMELY DIFICULT.
NO WINTER MAINTENANCE.
AIRCRAFT LOADING AND UNLOADING AT THE SOUTH END OF RY 21.
RY 03 FIRST 400 FT IS DOG LEG WITH A HEADING OF 360 DEG.
CONSIDERABLE AIR TAXI OPERATIONS MID TO LATE SUMMER.
ARPT IS LCTD ON PLATEAU 100-150 FT ABOVE RIVER.

Instrument Procedures

There are no published instrument procedures at 2U8.

Some nearby airports with instrument procedures:

KMYL - Mc Call Municipal Airport (48 nm W)
KSMN - Lemhi County Airport (53 nm NE)
KSUN - Friedman Memorial Airport (79 nm SE)
KGIC - Idaho County Airport (87 nm NW)
KBOI - Boise Air Terminal/Gowen Field (87 nm SW)
 
Loc | Ops | Rwys | IFR | FBO | Links
Com | Nav | Svcs | Stats | Notes


 
Area around 2U8 (Thomas Creek Airport)
 
Road maps at: MapQuest Bing Google
 
Aerial photo
WARNING: Photo may not be current or correct
Aerial photo of 2U8 (Thomas Creek Airport)
Photo taken 05-Jul-2008

Do you have a better or more recent aerial photo of Thomas Creek Airport that you would like to share? If so, please send us your photo.

 
Sectional chart

 
Airport distance calculator
Flying to Thomas Creek Airport? Find the distance to fly.

From to 2U8

Sunrise and sunset
Times for 14-Dec-2018
 Local
(UTC-7)
 Zulu
(UTC)
Morning civil twilight07:3714:37
Sunrise08:1115:11
Sunset16:5923:59
Evening civil twilight17:3200:32

Current date and time
Zulu (UTC)  15-Dec-2018 06:42:42
Local (UTC-7)  14-Dec-2018 23:42:42
 
METAR
KSNT 
34nm S 
150551Z AUTO 20007G19KT 170V260 03/M06 A2994 RMK AO1 SLP151 60001 T00331061 10044 21072 53000
KLLJ 
36nm E 
150555Z AUTO 00000KT 10SM OVC090 M09/M12 A2993 RMK AO2 SLP190 T10891122 11072 21117 56023
KMYL 
48nm W 
150617Z AUTO 13014KT 3/4SM -SN BR BKN010 OVC014 M02/M04 A2997 RMK AO2 P0000 T10221039
TAF
KMYL 
48nm W 
150529Z 1506/1606 30008KT 3SM -SN BR BKN015 OVC035 FM151200 VRB04KT 2SM BR OVC010 FM152100 20005KT P6SM OVC080
NOTAMs
Click for the latest NOTAMs
NOTAMs are issued by the DoD/FAA and will open in a separate window not controlled by AirNav.

 

 
 

Would you like to see your business listed on this page?

 If your business provides an interesting product or service to pilots, flight crews, aircraft, or users of the Thomas Creek Airport, you should consider listing it here.  To start the listing process, click on the button below
 
Add a business
 

Other Pages about Thomas Creek Airport

Update a link
 
Copyright © AirNav, LLC. All rights reserved. Privacy Policy  Contact